Stations météo

réclame
Mon MeteoGroup
Deelen, Pays-Bas (6275): Température de l'air & dewpoint: 11.01.2019 01:00:00 - 17.01.2019 01:00:00 (CET)Deelen, Pays-Bas (6275): Température de l'air 5cm: 11.01.2019 01:00:00 - 17.01.2019 01:00:00 (CET)Deelen, Pays-Bas (6275): Vitesse du vent & gusts: 11.01.2019 01:00:00 - 17.01.2019 01:00:00 (CET)Deelen, Pays-Bas (6275): Direction du vent: 11.01.2019 01:00:00 - 17.01.2019 01:00:00 (CET)Deelen, Pays-Bas (6275): reduced air pressure: 11.01.2019 01:00:00 - 17.01.2019 01:00:00 (CET)Deelen, Pays-Bas (6275): visibility: 11.01.2019 01:00:00 - 17.01.2019 01:00:00 (CET)Deelen, Pays-Bas (6275): Quantités de précipitations: 11.01.2019 01:00:00 - 17.01.2019 01:00:00 (CET)
Date & Time tt [°C] td [°C] tt 5cm [°C] ff [km/h] ff [knt] fx [km/h] fx [knt] dd ppp [hPa] vv [km] rr [mm]
17.01.2019 01:00:00 4,2 3,8 4,0 8 4 36 19 W 1001,0 10 1,3
17.01.2019 00:00:00 5,1 4,7 4,8 24 13 36 19 SW 1000,7 5 1,6
16.01.2019 23:00:00 5,1 4,0 4,7 26 14 43 23 SSW 1000,3 9 0,1
16.01.2019 22:00:00 4,8 3,8 4,5 24 13 40 21 SSW 1000,6 9 0,2
16.01.2019 21:00:00 5,1 3,2 4,6 24 13 36 19 SSW 1001,2 10 0,0
16.01.2019 20:00:00 5,2 2,7 4,8 26 14 43 23 SSW 1001,8 10 0,0
16.01.2019 19:00:00 5,1 2,3 4,8 26 14 40 21 SSW 1002,6 10 0,0
16.01.2019 18:00:00 5,3 2,2 4,9 26 14 40 21 SSW 1003,5 10 0,0
16.01.2019 17:00:00 5,3 2,4 4,9 28 15 43 23 SSW 1004,0 10 0,0
16.01.2019 16:00:00 5,5 2,9 5,3 24 13 43 23 SSW 1004,7 10 0,0
16.01.2019 15:00:00 5,5 3,4 5,3 29 16 50 27 SSW 1005,4 10 0,0
16.01.2019 14:00:00 5,7 3,8 5,6 29 16 47 25 SSW 1006,4 10 0,0
16.01.2019 13:00:00 5,8 3,9 5,6 26 14 40 21 SSW 1007,4 10 0,0
16.01.2019 12:00:00 5,8 4,1 5,4 28 15 43 23 SSW 1008,2 10 0,0
16.01.2019 11:00:00 5,4 4,4 5,3 29 16 47 25 SW 1009,2 4,3 0,0
16.01.2019 10:00:00 5,6 4,7 5,3 26 14 43 23 SW 1009,5 10 0,0
16.01.2019 09:00:00 5,7 5,1 5,4 26 14 40 21 SW 1009,8 4,5 0,0
16.01.2019 08:00:00 6,0 5,5 5,7 26 14 43 23 SW 1009,7 8 0,0
16.01.2019 07:00:00 6,1 5,8 5,8 28 15 36 19 SW 1010,1 3,2 0,1
16.01.2019 06:00:00 6,4 6,0 6,2 24 13 36 19 SW 1010,6 4,3 0,1
16.01.2019 05:00:00 6,9 5,9 6,6 22 12 36 19 SW 1011,2 7 0,0
16.01.2019 04:00:00 7,2 5,6 6,8 22 12 36 19 SW 1012,0 10 0,0
16.01.2019 03:00:00 7,0 5,3 6,7 21 11 32 18 SW 1012,5 10 0,0
16.01.2019 02:00:00 6,8 5,1 6,3 21 11 36 19 SW 1012,7 10 0,0
16.01.2019 01:00:00 7,0 5,0 6,6 21 11 36 19 SW 1013,0 10 0,0
16.01.2019 00:00:00 6,8 5,0 6,4 21 11 36 19 SW 1013,6 10 0,0
15.01.2019 23:00:00 6,8 5,1 6,5 18 10 36 19 SW 1014,3 10 0,0
15.01.2019 22:00:00 6,9 5,4 6,6 21 11 40 21 SW 1014,7 10 0,0
15.01.2019 21:00:00 7,1 5,5 6,7 24 13 32 18 WSW 1014,9 10 0,0
15.01.2019 20:00:00 6,9 5,4 6,4 21 11 36 19 WSW 1015,0 10 0,0
15.01.2019 19:00:00 6,9 5,4 6,6 22 12 36 19 WSW 1015,2 10 0,0
15.01.2019 18:00:00 7,0 5,3 6,6 21 11 36 19 WSW 1015,1 10 0,0
15.01.2019 17:00:00 6,9 5,4 6,6 21 11 40 21 WSW 1015,2 10 0,0
15.01.2019 16:00:00 7,0 5,4 6,8 24 13 47 25 WSW 1015,4 10 0,0
15.01.2019 15:00:00 6,9 5,2 6,7 24 13 40 21 WSW 1015,6 10 0,0
15.01.2019 14:00:00 6,8 5,4 6,7 26 14 43 23 WSW 1015,9 10 0,0
15.01.2019 13:00:00 6,8 5,4 6,6 22 12 43 23 WSW 1016,3 10 0,0
15.01.2019 12:00:00 6,4 5,2 6,2 22 12 40 21 WSW 1016,8 10 0,0
15.01.2019 11:00:00 6,0 4,7 5,8 26 14 40 21 WSW 1016,9 10 0,0
15.01.2019 10:00:00 5,4 4,7 5,0 21 11 32 18 WSW 1017,3 10 0,0
15.01.2019 09:00:00 4,8 4,3 4,1 22 12 32 18 WSW 1017,3 8 0,0
15.01.2019 08:00:00 4,4 4,1 3,9 18 10 29 16 WSW 1017,5 7 0,0
15.01.2019 07:00:00 3,7 3,4 3,0 16 9 29 16 WSW 1017,7 9 0,0
15.01.2019 06:00:00 3,0 2,6 2,1 16 9 29 16 WSW 1018,4 10 0,0
15.01.2019 05:00:00 1,8 1,7 0,9 16 9 25 14 SW 1018,6 10 0,0
15.01.2019 04:00:00 0,7 0,3 -0,2 11 6 18 10 SW 1019,4 10 0,0
15.01.2019 03:00:00 1,1 0,3 0,2 13 7 18 10 SW 1019,7 10 0,0
15.01.2019 02:00:00 0,2 -0,2 -1,4 13 7 18 10 SW 1019,8 10 0,0
15.01.2019 01:00:00 -0,3 -0,4 -2,1 4 2 7 4 - 1019,8 10 0,0
15.01.2019 00:00:00 0,9 0,4 -0,4 8 4 14 8 WSW 1020,2 10 0,0
14.01.2019 23:00:00 0,4 0,1 -1,5 11 6 14 8 WSW 1020,0 10 0,0
14.01.2019 22:00:00 0,8 0,6 -0,5 9 5 11 6 WSW 1020,0 10 0,0
14.01.2019 21:00:00 2,2 1,4 1,3 9 5 18 10 WNW 1019,7 10 0,0
14.01.2019 20:00:00 3,2 1,2 2,5 15 8 22 12 W 1019,2 10 0,0
14.01.2019 19:00:00 2,9 1,3 1,8 9 5 22 12 W 1018,6 10 0,0
14.01.2019 18:00:00 3,1 0,8 2,3 15 8 25 14 WNW 1017,9 10 0,0
14.01.2019 17:00:00 3,5 1,2 2,6 11 6 25 14 WNW 1017,5 10 0,0
14.01.2019 16:00:00 3,8 2,0 3,4 22 12 40 21 NW 1016,8 10 0,0
14.01.2019 15:00:00 4,0 2,5 3,9 15 8 47 25 NNW 1016,1 10 0,1
14.01.2019 14:00:00 4,8 1,7 4,5 21 11 40 21 NNW 1015,3 10 0,0
14.01.2019 13:00:00 4,6 2,5 4,4 28 15 47 25 NW 1015,0 10 0,3
14.01.2019 12:00:00 5,7 3,9 5,8 16 9 29 16 WNW 1014,2 10 0,0
14.01.2019 11:00:00 4,8 3,5 5,1 13 7 25 14 WNW 1013,8 10 0,0
14.01.2019 10:00:00 3,9 2,3 3,7 15 8 54 29 WNW 1013,3 10 0,2
14.01.2019 09:00:00 4,2 2,4 3,5 16 9 29 16 NW 1012,0 10 0,0
14.01.2019 08:00:00 4,8 4,1 4,6 16 9 32 18 NNW 1010,7 5 0,4
14.01.2019 07:00:00 5,4 5,4 5,2 9 5 22 12 NW 1009,4 10 0,9
14.01.2019 06:00:00 5,6 5,4 5,4 13 7 25 14 WNW 1008,4 6 0,4
14.01.2019 05:00:00 6,3 4,6 5,7 16 9 29 16 WNW 1007,8 10 0,0
14.01.2019 04:00:00 6,2 4,7 5,6 18 10 32 18 WNW 1007,3 10 0,0
14.01.2019 03:00:00 6,7 4,1 6,1 22 12 43 23 NW 1006,5 10 0,0
14.01.2019 02:00:00 6,9 4,6 5,9 26 14 40 21 WNW 1005,6 10 0,0
14.01.2019 01:00:00 6,8 4,7 6,1 22 12 40 21 WNW 1004,7 10 0,5
14.01.2019 00:00:00 6,3 4,2 5,5 18 10 50 27 WNW 1004,3 10 0,0
13.01.2019 23:00:00 7,0 4,4 6,0 24 13 65 35 NW 1003,7 10 0,0
13.01.2019 22:00:00 8,1 4,5 7,1 26 14 50 27 WNW 1003,3 10 0,0
13.01.2019 21:00:00 8,2 5,4 7,5 28 15 43 23 WNW 1002,8 10 0,0
13.01.2019 20:00:00 8,3 5,9 7,5 24 13 43 23 WNW 1002,2 10 0,0
13.01.2019 19:00:00 7,9 5,7 7,1 29 16 65 35 NW 1001,9 10 0,5
13.01.2019 18:00:00 8,4 6,7 7,7 31 17 54 29 WNW 1001,6 6 1,3
13.01.2019 17:00:00 9,3 7,3 8,8 28 15 43 23 W 1001,7 10 0,0
13.01.2019 16:00:00 9,1 7,8 8,6 26 14 50 27 W 1002,1 10 0,0
13.01.2019 15:00:00 8,8 8,2 8,6 26 14 47 25 W 1002,6 10 0,7
13.01.2019 14:00:00 8,8 8,3 8,5 26 14 43 23 W 1002,8 3,3 0,5
13.01.2019 13:00:00 8,7 8,4 8,5 24 13 43 23 W 1003,7 2,4 0,6
13.01.2019 12:00:00 8,7 8,5 8,5 22 12 43 23 W 1004,9 2,4 0,7
13.01.2019 11:00:00 8,6 8,4 8,5 21 11 43 23 W 1005,6 2,3 0,5
13.01.2019 10:00:00 8,7 8,1 8,3 21 11 40 21 W 1006,0 9 0,5
13.01.2019 09:00:00 8,8 8,4 8,4 22 12 40 21 W 1006,6 7 1,5
13.01.2019 08:00:00 8,7 8,6 8,3 21 11 36 19 - 1006,8 8 2,2
13.01.2019 07:00:00 8,3 8,3 8,0 18 10 32 18 W 1007,4 4,1 1,9
13.01.2019 06:00:00 7,8 7,8 7,6 21 11 32 18 WSW 1007,7 5 0,1
13.01.2019 05:00:00 7,6 7,5 7,4 16 9 25 14 WSW 1009,2 6 0,0
13.01.2019 04:00:00 7,4 7,3 7,2 11 6 22 12 WSW 1010,3 7 0,0
13.01.2019 03:00:00 7,2 7,1 7,0 13 7 22 12 WSW 1010,7 3,1 0,3
13.01.2019 02:00:00 7,2 7,1 6,9 13 7 22 12 W 1011,5 3,7 0,1
13.01.2019 01:00:00 7,1 6,7 6,6 13 7 25 14 W 1011,7 10 0,0
13.01.2019 00:00:00 7,0 6,7 6,7 13 7 25 14 W 1012,0 10 0,0
12.01.2019 23:00:00 7,0 6,7 6,5 13 7 22 12 W 1012,3 9 1,0
12.01.2019 22:00:00 6,9 6,8 6,6 11 6 29 16 W 1012,7 8 0,7
12.01.2019 21:00:00 7,1 6,5 6,6 18 10 29 16 - 1012,9 10 0,5
12.01.2019 20:00:00 7,0 6,3 6,4 15 8 36 19 W 1013,2 10 0,0
12.01.2019 19:00:00 7,0 6,2 6,4 21 11 36 19 W 1013,1 10 0,4
12.01.2019 18:00:00 7,1 6,4 6,7 13 7 32 18 W 1013,1 10 0,3
12.01.2019 17:00:00 7,5 6,5 7,0 21 11 36 19 WNW 1013,6 10 0,3
12.01.2019 16:00:00 7,6 6,9 7,2 16 9 32 18 W 1013,9 10 0,1
12.01.2019 15:00:00 7,8 7,3 7,6 21 11 36 19 W 1013,5 10 0,1
12.01.2019 14:00:00 7,7 7,4 7,3 21 11 40 21 W 1014,3 3,0 1,3
12.01.2019 13:00:00 6,8 6,7 6,6 24 13 40 21 WSW 1015,3 4,8 1,0
12.01.2019 12:00:00 6,3 6,2 6,1 26 14 40 21 WSW 1016,6 2,6 0,7
12.01.2019 11:00:00 6,0 5,4 5,8 22 12 36 19 SW 1017,7 6 0,1
12.01.2019 10:00:00 5,9 4,8 5,6 22 12 36 19 SW 1018,5 9 0,0
12.01.2019 09:00:00 5,8 4,1 5,4 21 11 32 18 SW 1019,5 10 -
12.01.2019 08:00:00 5,6 4,3 5,2 18 10 29 16 SW 1019,9 10 0,0
12.01.2019 07:00:00 5,6 4,5 5,3 13 7 25 14 WSW 1020,7 10 0,0
12.01.2019 06:00:00 5,7 5,1 5,4 13 7 22 12 WSW 1021,4 10 0,0
12.01.2019 05:00:00 5,5 5,1 5,2 13 7 18 10 WSW 1022,2 10 0,0
12.01.2019 04:00:00 5,9 5,3 5,5 11 6 22 12 W 1022,6 10 0,0
12.01.2019 03:00:00 5,9 5,8 5,6 9 5 29 16 W 1023,4 9 0,2
12.01.2019 02:00:00 6,0 5,9 5,7 13 7 18 10 W 1023,6 10 0,3
12.01.2019 01:00:00 6,0 5,9 5,8 13 7 22 12 W 1024,0 3,2 0,1
12.01.2019 00:00:00 6,0 5,9 5,6 13 7 22 12 WNW 1024,2 10 0,3
11.01.2019 23:00:00 6,2 6,1 6,0 13 7 22 12 WNW 1024,3 2,7 0,0
11.01.2019 22:00:00 6,5 6,1 6,2 13 7 29 16 NW 1024,3 10 0,0
11.01.2019 21:00:00 6,7 6,3 6,4 21 11 36 19 NW 1024,1 10 0,1
11.01.2019 20:00:00 6,7 6,6 6,5 15 8 29 16 WNW 1024,0 3,8 0,2
11.01.2019 19:00:00 6,9 6,6 6,6 18 10 29 16 NW 1023,8 10 0,2
11.01.2019 18:00:00 6,9 6,8 6,7 16 9 29 16 NW 1023,6 4,9 0,1
11.01.2019 17:00:00 7,1 6,8 6,9 18 10 29 16 NW 1023,4 10 0,1
11.01.2019 16:00:00 7,3 6,9 7,1 16 9 29 16 NW 1023,3 10 0,1
11.01.2019 15:00:00 7,2 7,2 7,2 15 8 29 16 NW 1023,2 2,5 0,2
11.01.2019 14:00:00 7,4 7,3 7,3 15 8 25 14 WNW 1023,2 3,0 0,3
11.01.2019 13:00:00 7,5 7,0 7,3 13 7 29 16 NW 1023,8 10 0,2
11.01.2019 12:00:00 7,0 6,9 6,9 15 8 25 14 WNW 1024,1 3,7 0,2
11.01.2019 11:00:00 6,7 6,6 6,5 11 6 18 10 WNW 1024,2 5 0,1
11.01.2019 10:00:00 6,3 6,3 6,0 9 5 18 10 WNW 1024,2 4,9 0,0
11.01.2019 09:00:00 5,6 5,5 4,8 9 5 14 8 NW 1024,3 2,9 0,0
11.01.2019 08:00:00 4,3 4,3 4,1 8 4 11 6 WNW 1024,1 1,8 0,0
11.01.2019 07:00:00 3,9 3,9 3,8 2 1 11 6 - 1023,7 1,1 0,2
11.01.2019 06:00:00 3,7 3,6 3,6 4 2 11 6 - 1023,8 0,8 0,1
11.01.2019 05:00:00 3,5 3,4 3,3 11 6 18 10 WSW 1023,9 0,8 0,0
11.01.2019 04:00:00 3,2 3,1 3,0 11 6 18 10 SW 1024,3 2,0 0,0
11.01.2019 03:00:00 2,9 2,8 2,7 11 6 22 12 SW 1024,7 1,7 0,2
11.01.2019 02:00:00 2,6 2,6 2,5 15 8 22 12 SW 1024,9 2,0 0,1
11.01.2019 01:00:00 2,4 2,3 2,3 15 8 22 12 SW 1025,3 2,0 0,4

tt = Température de l'air
td = dewpoint
tt 5cm = Température de l'air 5cm
ff = Vitesse du vent
fx = gusts
dd = Direction du vent
ppp = reduced air pressure
vv = visibility
rr = Quantités de précipitations

stations d'obs. à proximité